STARLINK-34646 (64796 NORAD) Tracking and Keplerian Element Data

This shows tracking and keplerian element data for the satellite.

Feedback or suggestion? Click here.




ElementValue
Catalog64796
NameSTARLINK-34646
Epoch Orbit558
Epoch Day354.25003472
Epoch Year2025
RAAN334.8287
Inclination70.0129
Eccentricity0.0002438
Argument of Perigee269.0876
Mean Anonmoly152.104
Mean Motion14.98333202
Decay Rate-9.323E-05
L11 64796U 25150G 25354.25003472 -.00009323 00000+0 -77461-3 0 9993
L22 64796 70.0129 334.8287 0002438 269.0876 152.1040 14.98333202 5589



Live tracking and technical data element details for STARLINK-34646 (NORAD 64796). STARLINK-34646 can be tracked NOW for your location showing map with azimuth and elevation plus other details from your city location.







IsCatalogInMostPopularTable: catalog: 64796, numindb: 3
Update: records affected: 1



GetName: 64796 STARLINK-34646

Hit Count: updated at: Sun, 08 Feb 2026 07:20:37 GMT